Location: ??
(35.5795°N, 139.6215°E)
Time: 17:44:49
(UTC+00:00)

Daily predictions for brighter satellites

Satellite Brightness Start Highest point End
(mag) Time Altitude Azimuth Time Altitude Azimuth Time Altitude Azimuth
Cosmos 2074 Rocket 4.4 12:01:38 10° NNW 12:07:48 58° W 12:10:51 30° SSW
Cosmos 2184 Rocket 4.4 12:04:53 10° NNW 12:10:54 56° W 12:13:41 31° SSW
ARIANE 5 R/B 2.5 12:11:11 78° NNE 12:11:11 78° NNE 12:15:17 10° N
CZ-4C R/B 4.4 12:05:26 10° NW 12:12:03 30° WSW 12:17:12 17° SSW
Cosmos 1818 3.8 12:07:31 10° NNW 12:12:54 54° ENE 12:13:24 52° E
SL-24 R/B - RUBIN 2 3.6 12:08:44 10° NNW 12:13:55 85° ENE 12:13:57 84° ENE
SL-24 DEB 4.4 12:15:55 59° NE 12:15:55 59° NE 12:19:58 10° N
Cosmos 1340 Rocket 3.4 12:11:24 10° N 12:14:37 53° N 12:14:37 53° N
Cosmos 1607 3.9 12:14:39 55° SSE 12:15:53 67° ESE 12:22:20 10° NE
Tianhe-1 3.4 12:14:24 10° WNW 12:16:23 24° NNW 12:16:23 24° NNW
Cosmos 1544 4.3 12:15:36 10° N 12:18:00 40° N 12:18:00 40° N
SPOT 5 2.9 12:23:45 77° E 12:23:49 77° ENE 12:29:09 10° N
ERS-1 Rocket 2.9 12:29:09 84° NNE 12:29:09 84° NNE 12:34:02 10° NNW
Cosmos 1238 Rocket 4.0 12:26:06 10° N 12:30:21 45° NE 12:30:21 45° NE
ATLAS CENTAUR R/B 3.7 12:36:07 14° NNE 12:36:07 14° NNE 12:36:43 10° NNE
OAO 3 Rocket 4.1 12:28:58 10° W 12:31:56 39° W 12:31:56 39° W
Cosmos 2263 4.2 12:40:04 73° ENE 12:40:04 73° ENE 12:45:24 10° NNE
Spot 2 Rocket 4.1 12:39:44 45° WSW 12:39:58 45° W 12:44:48 10° NNW
Cosmos 2112 Rocket 4.5 12:35:24 10° NNW 12:40:35 52° WSW 12:40:43 52° WSW
Cosmos 2181 Rocket 3.8 12:41:49 78° ESE 12:41:53 78° E 12:48:01 10° N
Cosmos 489 Rocket 4.5 12:35:50 10° NNW 12:42:03 66° ENE 12:42:14 66° E
Cosmos 2366 rocket 4.3 12:36:12 10° N 12:42:03 51° ENE 12:42:03 51° ENE
Lacrosse 5 3.9 12:54:14 18° NE 12:54:14 18° NE 12:55:33 10° NE
Milstar 3 3.6 12:37:33 10° W 12:51:47 55° SSW 12:52:58 53° S
Meteor 1-19 Rocket 4.3 12:56:59 66° WNW 12:56:59 66° WNW 13:02:02 10° N
Meteor 2-4 Rocket 4.2 12:58:09 53° NE 12:58:09 53° NE 13:02:32 10° NNE
ATLAS 2AS CENTAUR R/B 3.1 12:50:48 10° NW 12:57:31 47° WSW 12:58:02 46° SW
Cosmos 2341 Rocket 4.3 13:04:04 10° NNW 13:10:18 57° W 13:10:37 56° WSW
Cosmos 2218 Rocket 4.0 13:08:00 10° N 13:14:03 80° NW 13:14:03 80° NW
Gbstr 26 Del rocket 4.1 13:09:19 10° NW 13:15:57 73° WNW 13:15:57 73° WNW
RESURS DK-1 4.5 13:12:43 10° NNW 13:14:35 25° N 13:14:35 25° N
Cosmos 1656 Rocket 4.3 13:20:20 51° NW 13:20:20 51° NW 13:25:21 10° N
Terra 3.4 13:24:14 30° WNW 13:24:14 30° WNW 13:27:18 10° NNW
SL-8 Rocket 4.3 13:17:33 10° NNW 13:23:33 57° W 13:23:33 57° W
Cosmos 2369 Rocket 4.2 13:39:48 17° W 13:42:12 22° WNW 13:46:31 10° N
Lacrosse 5 3.9 14:33:21 22° NW 14:33:52 22° NW 14:37:48 10° NNE
Cosmos 2227 Rocket 4.1 14:33:56 10° N 14:38:03 20° ENE 14:38:32 20° ENE
Cosmos 2297 Rocket 3.8 14:35:18 10° N 14:39:49 27° NE 14:39:49 27° NE
SeaSat 1 4.4 14:44:43 10° NE 14:46:45 24° NE 14:46:45 24° NE
COSMOS 2455 3.6 14:48:19 10° NNW 14:53:08 48° NNE 14:53:08 48° NNE
Resurs 1-4 Rocket 4.3 15:04:10 10° NE 15:06:15 16° ENE 15:06:15 16° ENE
CZ-2D R/B 4.1 15:12:22 10° NE 15:15:04 19° ENE 15:15:04 19° ENE
SL-16 R/B 4.4 15:20:37 19° E 15:22:59 23° ENE 15:27:44 10° NNE
Cosmos 2219 3.9 15:26:22 10° NNW 15:30:48 51° NNE 15:30:48 51° NNE
Cosmos 2173 Rocket 4.2 15:33:27 10° N 15:38:59 66° NE 15:38:59 66° NE
Cosmos 1697 Rocket 3.3 15:49:13 53° N 15:49:13 53° N 15:53:33 10° NNE
USA 281 4.0 15:53:09 31° ESE 15:55:45 46° ENE 16:01:56 10° N
Cosmos 407 Rocket 4.4 15:53:08 10° N 15:58:01 47° ENE 15:58:01 47° ENE
Cosmos 2285 Rocket 4.2 16:01:47 60° E 16:01:47 60° E 16:07:58 10° NNE
Cosmos 1980 Rocket 2.5 16:03:28 61° NE 16:03:28 61° NE 16:08:14 10° NNE
Cosmos 2061 Rocket 4.1 15:58:03 10° N 16:04:25 71° E 16:04:36 70° E
Timation 2 Rocket 4.4 15:58:46 10° NNW 16:03:15 51° NW 16:03:15 51° NW
Helios 1B rocket 4.2 16:04:57 10° NNE 16:07:11 30° NE 16:07:11 30° NE
Meteor 1-16 Rocket 4.4 16:04:44 10° N 16:09:59 71° N 16:09:59 71° N
Cosmos 1624 Rocket 4.4 16:11:50 60° NNE 16:11:50 60° NNE 16:16:13 10° NNE
CENTAUR R/B 4.2 16:10:55 18° ESE 16:11:24 18° ESE 16:15:25 10° ENE
USA 215 3.9 16:07:04 10° ESE 16:13:22 53° NE 16:19:40 10° NW
Cosmos 2123 Rocket 4.0 16:15:16 73° NW 16:15:16 73° NW 16:21:08 10° N
Cosmos 2100 Rocket 4.5 16:10:06 10° NNW 16:15:21 49° WNW 16:15:21 49° WNW
Lacrosse 4 Rocket 3.4 16:21:17 24° NNW 16:21:17 24° NNW 16:23:49 10° N
Cosmos 2227 Rocket 3.2 16:16:55 10° NNW 16:20:19 34° NW 16:20:19 34° NW
Cosmos 2297 Rocket 3.7 16:19:01 10° NW 16:21:35 24° WNW 16:21:35 24° WNW
Cosmos 1802 Rocket 4.1 16:18:14 10° NNW 16:23:37 58° WNW 16:23:37 58° WNW
ADEOS II 2.9 16:19:53 10° NNE 16:24:51 42° E 16:24:59 42° ESE
SeaSat 1 4.3 16:23:09 10° N 16:26:31 20° NW 16:26:31 20° NW
GP-B 4.3 16:22:48 10° NNE 16:26:31 36° ENE 16:26:31 36° ENE
Cosmos 1025 Rocket 4.5 16:29:21 32° NNW 16:29:21 32° NNW 16:31:56 10° N
Cosmos 1452 Rocket 4.4 16:30:42 39° ESE 16:30:54 39° E 16:35:48 10° NNE
Meteor 2-5 Rocket 3.8 16:33:02 66° ESE 16:33:19 67° E 16:38:52 10° NNE
Cosmos 2056 Rocket 3.9 16:34:22 51° NW 16:34:22 51° NW 16:38:39 10° N
Cosmos 2278 3.8 16:33:53 68° NW 16:33:53 68° NW 16:39:23 10° NNE
Cosmos 1864 Rocket 4.4 16:27:45 10° N 16:34:03 71° W 16:34:06 71° W
Cosmos 2369 4.5 16:34:22 40° WNW 16:34:22 40° WNW 16:39:36 10° N
Cosmos 1626 4.4 16:39:50 20° NNW 16:39:50 20° NNW 16:41:12 10° N
Cosmos 1140 Rocket 3.7 16:35:10 10° NNW 16:39:34 62° NW 16:39:34 62° NW
Cosmos 2082 3.7 16:35:39 10° NNW 16:40:49 68° WNW 16:40:49 68° WNW
Cosmos 1447 Rocket 4.5 16:42:52 65° S 16:43:54 84° E 16:50:16 10° N
SL-16 R/B 2.9 16:43:16 39° SE 16:44:11 43° ESE 16:49:30 10° NE
Atlas Centaur 2 3.2 16:44:02 49° S 16:44:22 49° SSE 16:51:39 10° E
Resurs 1-4 Rocket 2.6 16:42:35 10° N 16:47:20 48° WNW 16:47:20 48° WNW
CZ-2D R/B 2.7 16:51:29 10° N 16:56:23 41° WNW 16:56:23 41° WNW
IRS P6 4.5 16:53:37 10° N 16:58:51 71° WNW 16:59:09 69° W
OAO 2 Rocket 3.2 17:01:36 81° SW 17:01:46 82° S 17:07:04 10° E
SL-16 R/B 2.7 17:05:42 50° WSW 17:06:08 51° W 17:12:13 10° NNW
NPP 4.2 17:01:53 10° N 17:06:55 41° WNW 17:07:12 41° W
OAO 3 Copernicus 4.2 17:07:28 72° SSE 17:07:28 72° SSE 17:12:32 10° E
Cosmos 2228 3.7 17:03:25 10° N 17:07:38 51° E 17:08:46 39° SE
Cosmos 2322 Rocket 2.7 17:06:34 39° SSE 17:08:15 54° ESE 17:13:47 10° NNE
Cosmos 2263 Rocket 2.6 17:04:01 10° NNW 17:09:38 61° ENE 17:15:14 10° SSE
IRS-1D 3.5 17:04:38 10° NNE 17:10:01 87° WNW 17:11:02 60° SSW
Cosmos 2233 Rocket 4.0 17:06:18 10° NNW 17:12:18 55° W 17:13:15 50° SW
Cosmos 405 3.7 17:12:45 10° N 17:15:24 49° N 17:15:24 49° N
NOSS 3-2 (C) 3.6 17:16:50 39° S 17:18:33 55° ESE 17:24:24 10° NE
Cosmos 1726 Rocket 4.4 17:18:43 10° N 17:22:59 48° E 17:25:42 21° SSE
Cosmos 1300 4.0 17:20:38 10° NNW 17:22:53 29° NW 17:22:53 29° NW
Cosmos 1606 Rocket 3.8 17:20:28 10° N 17:24:53 68° E 17:26:42 34° SSE
Cosmos 2360 Rocket 3.1 17:24:50 23° SSE 17:27:54 43° ESE 17:33:14 10° NE
ARIANE 5 R/B 3.3 17:23:16 10° NNE 17:28:10 47° E 17:31:03 23° SSE
ADEOS Rocket 3.5 17:22:03 17° SSE 17:28:15 84° WSW 17:36:06 10° NNW
OceanSat 1 rocket 4.5 17:28:33 10° NNE 17:33:19 85° WNW 17:34:46 45° SSW
Cosmos 1340 4.4 17:36:31 20° NW 17:36:31 20° NW 17:38:40 10° NNW
Cosmos 1455 3.4 17:33:29 10° N 17:37:09 42° E 17:40:16 14° SSE
IDEFIX/ARIANE 42P 2.5 17:32:28 10° N 17:37:45 77° WNW 17:39:52 37° SSW
NOSS 3-2 (A) 3.5 17:36:16 38° WSW 17:38:13 56° NW 17:44:15 10° NNE
Meteor 1-24 Rocket 4.3 17:37:42 34° WSW 17:38:44 37° WNW 17:43:42 10° N
USA 281 3.9 17:39:59 29° WSW 17:40:17 29° WSW 17:45:54 10° NW
Spot 1 4.3 17:39:27 22° SSE 17:42:33 88° WSW 17:47:34 10° NNW
CZ-4C R/B 3.3 17:44:37 36° S 17:46:14 71° WSW 17:50:19 10° NNW
IRS-1C 4.0 17:41:11 10° NNE 17:46:33 86° WNW 17:49:27 28° SSW
Cosmos 1980 Rocket 4.1 17:45:14 13° WNW 17:47:09 15° NW 17:50:15 10° NNW
COSMOS 2441 4.4 17:43:10 10° NNE 17:48:06 80° ESE 17:50:56 25° S
Cosmos 2237 4.2 17:48:25 29° SSW 17:51:30 88° ESE 17:57:15 10° NNE
Cosmos 389 Rocket 2.9 17:50:13 10° N 17:53:39 60° E 17:56:14 16° SSE
Meteor 1-28 Rocket 3.8 17:54:02 35° W 17:54:02 35° W 17:57:15 10° NNW
USA 238 DEB 3.8 17:51:26 29° SW 17:54:50 61° NW 18:01:33 10° NNE
USA 238 3.8 17:51:31 29° SW 17:54:56 61° NW 18:01:39 10° NNE
Centaur D-1AR AC-39 3.8 17:52:48 23° SSW 17:55:19 29° SSE 18:11:05 10° ESE
USA 215 3.6 17:50:24 10° SSE 17:56:25 39° SW 18:02:26 10° WNW
CENTAUR R/B 2.6 17:58:06 28° WSW 18:01:09 59° NW 18:07:45 10° NNE
MSX 3.9 17:56:15 10° N 18:01:59 67° WNW 18:05:46 22° SSW
Cosmos 1331 Rocket 4.0 17:59:32 28° SW 18:02:11 64° WNW 18:07:20 10° N
ADEOS II 3.6 18:00:21 10° NNW 18:04:12 21° WNW 18:05:56 18° W
Meteor 1-21 Rocket 4.1 18:01:15 18° S 18:05:32 86° W 18:11:06 10° N
Cosmos 2227 4.4 18:01:26 10° NW 18:06:49 47° WSW 18:12:08 10° S
Cosmos 1184 Rocket 3.3 18:05:22 19° SSE 18:07:24 55° E 18:10:33 10° NNE
Cosmos 1346 Rocket 3.6 18:07:21 28° WSW 18:08:16 32° WNW 18:11:47 10° NNW
Cosmos 2084 3.4 18:04:36 10° NW 18:09:06 79° WSW 18:13:40 10° SSE
OAO 1 Rocket 4.4 18:05:18 18° W 18:09:19 85° S 18:14:40 10° E
Meteor 2-10 Rocket 4.1 18:06:04 10° NNW 18:11:12 39° W 18:14:23 20° SSW
Cosmos 1703 3.1 18:10:14 23° SSW 18:12:34 74° W 18:16:27 10° N
Cosmos 2322 4.4 18:11:11 10° S 18:16:38 51° ESE 18:22:06 10° NNE
SEDSat Delta rocket 3.7 18:13:21 21° WSW 18:17:10 56° S 18:22:11 10° E
ALOS 3.9 18:13:11 10° NNE 18:17:23 32° E 18:21:33 10° SSE
Cosmos 1328 3.7 18:22:33 12° S 18:26:15 83° W 18:30:13 10° N
SL-16 R/B 3.6 18:25:08 15° WSW 18:28:25 24° WNW 18:32:58 10° N
Atlas Centaur 2 3.0 18:26:35 13° WSW 18:33:48 59° S 18:40:28 10° ESE
Cosmos 2333 Rocket 2.4 18:30:27 10° SSW 18:36:11 74° ESE 18:41:57 10° NNE
CZ-2C R/B 2.8 18:33:00 10° N 18:37:03 83° WNW 18:41:05 10° SSW
Spot 4 Rocket 4.2 18:33:08 10° N 18:38:11 58° WNW 18:43:11 10° SSW
ATLAS 3B R/B 3.8 18:34:46 10° S 18:40:44 40° ESE 18:46:49 10° NE
ATLAS CENTAUR R/B 4.2 18:37:42 10° SSW 18:43:09 60° ESE 18:57:34 10° NE
Cosmos 1441 Rocket 3.4 18:40:48 10° SSW 18:44:39 54° W 18:48:33 10° N
OAO 2 Rocket 3.8 18:41:24 10° W 18:46:26 46° SSW 18:51:30 10° SE
SL-24 R/B 4.3 18:43:12 10° SSE 18:47:00 68° ENE 18:51:17 10° N
OAO 3 Copernicus 4.3 18:46:54 10° W 18:51:59 83° S 18:57:04 10° E
Cosmos 2322 Rocket 3.8 18:48:32 10° WSW 18:52:37 20° WNW 18:56:43 10° N
Cosmos 2263 Rocket 3.7 18:49:48 10° WNW 18:52:56 15° W 18:56:05 10° SW
Cosmos 2333 4.4 18:47:57 10° SSW 18:53:40 63° WNW 18:59:24 10° NNE
Cosmos 1844 Rocket 2.7 18:48:09 10° NNW 18:53:49 87° WSW 18:59:29 10° SSE
Aureole 1 Rocket 4.0 18:50:20 10° NW 18:53:51 29° WSW 18:58:14 10° SSW
SL-08 R/B 4.1 18:51:00 10° SSW 18:55:03 29° W 18:59:06 10° NW
Cosmos-2242 4.1 18:55:56 10° N 19:00:09 51° E 19:04:21 10° SSE
SL-8 R/B 4.3 19:00:14 10° WSW 19:04:51 49° NNW 19:09:29 10° NE
Cosmos 1825 Rocket 3.8 19:01:59 10° S 19:06:21 77° E 19:10:45 10° N
ARIANE 5 R/B 4.1 19:03:30 10° NNW 19:06:50 18° WNW 19:10:08 10° WSW
CZ-2C R/B 3.1 19:02:52 10° N 19:07:41 40° WNW 19:12:29 10° SW
Cosmos 2219 Rocket 2.3 19:03:23 10° SSW 19:09:00 68° WNW 19:14:41 10° NNE
Genesis I 3.2 19:05:50 10° SSW 19:09:36 85° ESE 19:13:29 10° NNE
Cosmos 2360 Rocket 3.5 19:07:33 10° WSW 19:12:02 24° WNW 19:16:33 10° N
